STARLINK-6108, 57155

Orbit data source: Space-Track

STARLINK-6108, 57155 is a payload satellite owned by SpaceX/Seattle (US) in LEO that was launched on Fri, 23 Jun 2023 UTC via an FALCON 9 launch vehicle from the Air Force Eastern Test Range (AFETR). Payload-class satellites include a variety of spacecraft equipped with specific instruments for various scientific and technological missions. These include communications satellites like Starlink; space stations such as the ISS; scientific satellites like the Hubble; Earth observation satellites from companies like Planet Labs, Umbra, and HawkEye 360; GPS; miniature CubeSats for education and research; and military/defense satellites.

Loading next visibility...
Identifier
57155, 2023-090BG
Orbit
LEO
Country
Flag of USUS
Related business
Manufacturer
SpaceX/Seattle
Mission
Operational Commercial Communications
Bus & Motor
STARLINK, Unknown motor
Mass
305 kg wet, ~290 kg dry
Launch date (UTC)
2023-06-23 (3 years ago)
Launch vehicle
FALCON 9
Launch site
Air Force Eastern Test Range (AFETR)
Object type
Payload
Rocket body
Debris
Shape & HBR
Box + 1 Pan, 10.1 m
Radar Cross Section
11.087 m², Large (>1 m²)

Expand to show TLE details & history
Last TLE update: 2 days ago

TLE from 2 days ago
0 STARLINK-6108
1 57155U 23090BG  26171.05403175 -.00000134  00000-0  46763-5 0  9999
2 57155  43.0043  45.6660 0001611 268.7275  91.3392 15.27575040166198
Epoch: 2026-06-20T01:17Z
TLE epoch observation values (Epoch: 2026-06-20T01:17:48.343Z)
Latitude
-0.00002°
Longitude
117.94039°
Altitude
482.866 km
Speed
7.626 km/s
True Right ascension
03h 02m 39s
True Declination
0° 00' 00"
Sunlit
Object was in daylight at epoch
Visualization orbit readout
Latitude
Unknown
Longitude
Unknown
Altitude
Unknown
Speed
Unknown
Apparent Right ascension
Unknown
Apparent Declination
Unknown
Sunlit
N/A
Visualization observer readout
Local Sidereal Time
21:28:47
Azimuth
Unknown
Elevation
Unknown
Doppler factor
Unknown
Orbital elements
Apogee altitude
486.114 km
Perigee altitude
483.903 km
Semi-major axis
6,863.145 km
Eccentricity
0.00016
Inclination
43.0043°
RAAN
45.666°
Arg. of periapsis
268.7275°
True anomaly
91.35766°
Mean anomaly
91.3392°
Eccentric anomaly
91.34843°
Mean motion
3.81732 °/min
Orbital period
94.31 mins
BSTAR
0.0000046763
Loading maneuver chart data...
Computing Atmospheric mass density...
Loading historical data...
Loading historical data...
Loading historical data...
Loading historical data...
Loading historical data...
Loading historical data...
Loading historical data...

Documentation

Showing up to 5 results
|